Hourly Weather Dziegiel

Today, 6 May, Thursday

Time Temperature Precipitation Wind Pressure Humidity
00:00 +3°C° 0.3 mm 7 mps 735 mmHg 88%
01:00 +1°C° 0 mm 8 mps 735 mmHg 94%
02:00 +1°C° 0.2 mm 8 mps 736 mmHg 89%
03:00 +1°C° 0.2 mm 8 mps 736 mmHg 85%
04:00 +1°C° 0.2 mm 8 mps 736 mmHg 80%
05:00 +1°C° 0 mm 8 mps 736 mmHg 77%
06:00 +1°C° 0 mm 8 mps 737 mmHg 75%
07:00 +2°C° 0 mm 8 mps 737 mmHg 72%
08:00 +2°C° 0 mm 8 mps 738 mmHg 68%
09:00 +4°C° 0 mm 8 mps 738 mmHg 64%
10:00 +5°C° 0 mm 8 mps 738 mmHg 61%
11:00 +6°C° 0 mm 8 mps 738 mmHg 52%
12:00 +9°C° 0 mm 8 mps 738 mmHg 43%
13:00 +10°C° 0 mm 8 mps 738 mmHg 35%
14:00 +10°C° 0 mm 7 mps 738 mmHg 38%
15:00 +9°C° 0 mm 7 mps 738 mmHg 41%
16:00 +9°C° 0 mm 6 mps 738 mmHg 44%
17:00 +8°C° 0.1 mm 5 mps 739 mmHg 53%
18:00 +6°C° 0.1 mm 4 mps 739 mmHg 62%
19:00 +5°C° 0.1 mm 3 mps 739 mmHg 70%
20:00 +4°C° 0 mm 3 mps 739 mmHg 74%
21:00 +4°C° 0 mm 2 mps 739 mmHg 78%
22:00 +3°C° 0 mm 2 mps 739 mmHg 82%
23:00 +3°C° 0 mm 2 mps 739 mmHg 82%

Tomorrow, 7 May, Friday

Time Temperature Precipitation Wind Pressure Humidity
00:00 +3°C° 0 mm 2 mps 739 mmHg 83%
01:00 +3°C° 0 mm 2 mps 739 mmHg 83%
02:00 +4°C° 0 mm 1 mps 739 mmHg 83%
03:00 +4°C° 0 mm 1 mps 739 mmHg 82%
04:00 +4°C° 0 mm 1 mps 738 mmHg 81%
05:00 +5°C° 0 mm 1 mps 739 mmHg 76%
06:00 +6°C° 0 mm 1 mps 739 mmHg 71%
07:00 +7°C° 0 mm 1 mps 739 mmHg 66%
08:00 +7°C° 0 mm 2 mps 739 mmHg 61%
09:00 +8°C° 0 mm 2 mps 739 mmHg 57%
10:00 +8°C° 0 mm 3 mps 739 mmHg 52%
11:00 +9°C° 0 mm 3 mps 739 mmHg 50%
12:00 +9°C° 0 mm 3 mps 740 mmHg 47%
13:00 +8°C° 0 mm 4 mps 740 mmHg 45%
14:00 +8°C° 0.1 mm 4 mps 740 mmHg 48%
15:00 +8°C° 0.1 mm 5 mps 740 mmHg 52%
16:00 +8°C° 0.1 mm 5 mps 741 mmHg 55%
17:00 +7°C° 0 mm 5 mps 741 mmHg 61%
18:00 +6°C° 0 mm 4 mps 742 mmHg 67%
19:00 +5°C° 0 mm 4 mps 743 mmHg 74%
20:00 +3°C° 0 mm 3 mps 743 mmHg 80%
21:00 +2°C° 0 mm 3 mps 744 mmHg 87%
22:00 +1°C° 0 mm 3 mps 744 mmHg 94%
23:00 +1°C° 0 mm 3 mps 744 mmHg 93%

Day after tomorrow, 8 May, Saturday

Time Temperature Precipitation Wind Pressure Humidity
00:00 +2°C° 0 mm 3 mps 745 mmHg 92%
01:00 +2°C° 0 mm 3 mps 745 mmHg 91%
02:00 +1°C° 0 mm 3 mps 745 mmHg 93%
03:00 +1°C° 0 mm 3 mps 746 mmHg 95%
04:00 0°C° 0 mm 3 mps 746 mmHg 97%
05:00 +2°C° 0 mm 3 mps 746 mmHg 91%
06:00 +3°C° 0 mm 4 mps 747 mmHg 85%
07:00 +4°C° 0 mm 4 mps 747 mmHg 79%
08:00 +5°C° 0 mm 5 mps 747 mmHg 76%
09:00 +6°C° 0 mm 5 mps 748 mmHg 72%
10:00 +6°C° 0 mm 5 mps 748 mmHg 69%
11:00 +6°C° 0 mm 5 mps 748 mmHg 67%
12:00 +7°C° 0 mm 5 mps 748 mmHg 66%
13:00 +7°C° 0 mm 5 mps 749 mmHg 64%
14:00 +8°C° 0.1 mm 5 mps 749 mmHg 58%
15:00 +8°C° 0.1 mm 4 mps 749 mmHg 52%
16:00 +10°C° 0.1 mm 4 mps 749 mmHg 46%
17:00 +9°C° 0 mm 3 mps 749 mmHg 52%
18:00 +8°C° 0 mm 2 mps 749 mmHg 57%
19:00 +8°C° 0 mm 1 mps 749 mmHg 63%
20:00 +7°C° 0 mm 1 mps 749 mmHg 66%
21:00 +6°C° 0 mm 1 mps 749 mmHg 69%
22:00 +5°C° 0 mm 1 mps 749 mmHg 73%
23:00 +4°C° 0 mm 2 mps 749 mmHg 74%

9 May, Sunday

Time Temperature Precipitation Wind Pressure Humidity
00:00 +4°C° 0 mm 2 mps 749 mmHg 75%
01:00 +2°C° 0 mm 3 mps 749 mmHg 77%
02:00 +3°C° 0 mm 3 mps 749 mmHg 75%
03:00 +3°C° 0 mm 3 mps 748 mmHg 73%
04:00 +4°C° 0 mm 4 mps 748 mmHg 71%
05:00 +5°C° 0 mm 4 mps 748 mmHg 69%
06:00 +6°C° 0 mm 5 mps 747 mmHg 66%
07:00 +8°C° 0 mm 5 mps 747 mmHg 63%
08:00 +9°C° 0 mm 5 mps 747 mmHg 62%
09:00 +10°C° 0 mm 5 mps 747 mmHg 61%
10:00 +12°C° 0 mm 5 mps 747 mmHg 60%
11:00 +14°C° 0 mm 6 mps 747 mmHg 55%
12:00 +16°C° 0 mm 6 mps 746 mmHg 49%
13:00 +19°C° 0 mm 6 mps 746 mmHg 44%
14:00 +19°C° 0 mm 6 mps 746 mmHg 47%
15:00 +19°C° 0 mm 6 mps 746 mmHg 50%
16:00 +19°C° 0 mm 5 mps 746 mmHg 53%
17:00 +17°C° 0 mm 5 mps 746 mmHg 60%
18:00 +17°C° 0 mm 4 mps 746 mmHg 67%
19:00 +15°C° 0 mm 4 mps 746 mmHg 74%
20:00 +14°C° 0 mm 4 mps 746 mmHg 78%
21:00 +13°C° 0 mm 4 mps 746 mmHg 82%
22:00 +12°C° 0 mm 4 mps 746 mmHg 86%
23:00 +11°C° 0 mm 4 mps 746 mmHg 87%

10 May, Monday

Time Temperature Precipitation Wind Pressure Humidity
00:00 +11°C° 0 mm 4 mps 746 mmHg 88%
01:00 +10°C° 0 mm 4 mps 746 mmHg 89%
02:00 +8°C° 0 mm 4 mps 746 mmHg 86%
03:00 +8°C° 0 mm 4 mps 746 mmHg 84%
04:00 +7°C° 0 mm 4 mps 746 mmHg 81%
05:00 +10°C° 0 mm 4 mps 746 mmHg 74%
06:00 +10°C° 0 mm 5 mps 746 mmHg 68%
07:00 +13°C° 0 mm 5 mps 746 mmHg 61%
08:00 +15°C° 0 mm 6 mps 746 mmHg 56%
09:00 +17°C° 0 mm 6 mps 746 mmHg 51%
10:00 +20°C° 0 mm 7 mps 746 mmHg 47%
11:00 +21°C° 0 mm 7 mps 746 mmHg 46%
12:00 +22°C° 0 mm 7 mps 745 mmHg 46%
13:00 +22°C° 0 mm 7 mps 745 mmHg 46%
14:00 +22°C° 0 mm 7 mps 745 mmHg 49%
15:00 +22°C° 0 mm 6 mps 745 mmHg 52%
16:00 +22°C° 0 mm 6 mps 745 mmHg 54%
17:00 +21°C° 0 mm 5 mps 745 mmHg 61%
18:00 +20°C° 0 mm 4 mps 745 mmHg 68%
19:00 +18°C° 0 mm 3 mps 745 mmHg 74%
20:00 +17°C° 0 mm 2 mps 745 mmHg 80%
21:00 +16°C° 0 mm 2 mps 745 mmHg 86%
22:00 +15°C° 0 mm 2 mps 745 mmHg 91%
23:00 +14°C° 0 mm 2 mps 745 mmHg 93%

11 May, Tuesday

Time Temperature Precipitation Wind Pressure Humidity
00:00 +14°C° 0 mm 2 mps 745 mmHg 94%
01:00 +13°C° 0 mm 2 mps 745 mmHg 96%
02:00 +12°C° 0 mm 3 mps 745 mmHg 95%
03:00 +12°C° 0 mm 3 mps 744 mmHg 94%
04:00 +12°C° 0 mm 4 mps 744 mmHg 93%
05:00 +14°C° 0 mm 4 mps 744 mmHg 86%
06:00 +15°C° 0 mm 4 mps 744 mmHg 80%
07:00 +16°C° 0 mm 5 mps 744 mmHg 73%
08:00 +19°C° 0 mm 5 mps 744 mmHg 67%
09:00 +21°C° 0 mm 6 mps 744 mmHg 60%
10:00 +22°C° 0 mm 6 mps 744 mmHg 54%
11:00 +23°C° 0 mm 6 mps 744 mmHg 53%
12:00 +24°C° 0 mm 6 mps 744 mmHg 52%
13:00 +26°C° 0 mm 6 mps 744 mmHg 51%
14:00 +26°C° 0 mm 6 mps 743 mmHg 53%
15:00 +24°C° 0 mm 6 mps 743 mmHg 55%
16:00 +24°C° 0 mm 6 mps 743 mmHg 57%
17:00 +23°C° 0 mm 5 mps 743 mmHg 62%
18:00 +22°C° 0 mm 4 mps 743 mmHg 68%
19:00 +21°C° 0 mm 3 mps 743 mmHg 73%
20:00 +20°C° 0 mm 3 mps 744 mmHg 79%
21:00 +18°C° 0 mm 2 mps 744 mmHg 85%
22:00 +17°C° 0 mm 2 mps 744 mmHg 91%
23:00 +17°C° 0 mm 3 mps 744 mmHg 91%
Show more

We Need Your Consent

Meteoprog and our Service Providers may store and access personal data such as cookies, device identifiers or other similar technologies on your device and process such data to personalise content and ads, as well as provide social media features and to analyse the traffic.

  • Store and/or access information on your device

    Cookies, device identifiers or other information can be stored or accessed on your device for the purposes indicated above.

  • Personalised ads and content, ad and content measurement, audience insights, and products development

    Ads and content can be personalised based on a profile. More data can be added to better personalise ads and content. Ad and content performance can be measured. Insights about the audience who saw the ads and content can be derived. Such data can be used to develop or improve user’s experience, systems and software.

By clicking ‘I Agree’ you will allow the use of indicated cookies, device identifiers, web beacons or other similar technologies. Your settings can be changed in the browser on your device.

For certain purposes, legitimate interests may be relied on, rather than consent. You can read more about this in our Privacy and Cookie Policy.